• In Hungary
  • List of Countries
  • For 7 days
  • Water Temperature
  • Satellite Maps
  • Weather Map
  • News
  • Weather Widgets
  • user-avatar
    Login

    Hourly Weather San Lorenzo

    Today, 25 June, Monday

    Time Temperature Precipitation Wind Pressure Humidity
    00:00 +15°C° 0 mm 1 mps 749 mmHg 84%
    01:00 +15°C° 0 mm 1 mps 749 mmHg 84%
    02:00 +15°C° 0 mm 1 mps 749 mmHg 85%
    03:00 +15°C° 0 mm 1 mps 749 mmHg 86%
    04:00 +14°C° 0 mm 1 mps 749 mmHg 88%
    05:00 +14°C° 0 mm 1 mps 749 mmHg 89%
    06:00 +14°C° 0 mm 1 mps 749 mmHg 88%
    07:00 +14°C° 0 mm 1 mps 750 mmHg 88%
    08:00 +15°C° 0 mm 1 mps 750 mmHg 87%
    09:00 +15°C° 0.1 mm 1 mps 750 mmHg 86%
    10:00 +16°C° 0.1 mm 1 mps 751 mmHg 84%
    11:00 +16°C° 0.1 mm 1 mps 751 mmHg 83%
    12:00 +16°C° 0.1 mm 1 mps 750 mmHg 84%
    13:00 +16°C° 0.1 mm 1 mps 750 mmHg 85%
    14:00 +16°C° 0.1 mm 1 mps 749 mmHg 86%
    15:00 +16°C° 0.1 mm 1 mps 749 mmHg 86%
    16:00 +16°C° 0.1 mm 1 mps 749 mmHg 87%
    17:00 +16°C° 0.1 mm 1 mps 749 mmHg 87%
    18:00 +15°C° 0 mm 1 mps 749 mmHg 89%
    19:00 +15°C° 0 mm 1 mps 750 mmHg 90%
    20:00 +15°C° 0 mm 1 mps 750 mmHg 91%
    21:00 +14°C° 0 mm 1 mps 750 mmHg 92%
    22:00 +14°C° 0 mm 1 mps 750 mmHg 94%
    23:00 +14°C° 0 mm 1 mps 750 mmHg 95%

    Tomorrow, 26 June, Tuesday

    Time Temperature Precipitation Wind Pressure Humidity
    00:00 +13°C° 0 mm 1 mps 749 mmHg 96%
    01:00 +13°C° 0 mm 1 mps 749 mmHg 96%
    02:00 +13°C° 0 mm 1 mps 749 mmHg 97%
    03:00 +13°C° 0 mm 1 mps 748 mmHg 97%
    04:00 +13°C° 0 mm 1 mps 748 mmHg 97%
    05:00 +13°C° 0 mm 1 mps 748 mmHg 97%
    06:00 +13°C° 0.2 mm 1 mps 748 mmHg 95%
    07:00 +14°C° 0.2 mm 1 mps 749 mmHg 94%
    08:00 +14°C° 0.2 mm 1 mps 749 mmHg 92%
    09:00 +15°C° 0.5 mm 1 mps 749 mmHg 89%
    10:00 +18°C° 0.5 mm 1 mps 749 mmHg 87%
    11:00 +19°C° 0.5 mm 1 mps 749 mmHg 84%
    12:00 +19°C° 1 mm 1 mps 749 mmHg 86%
    13:00 +19°C° 1 mm 1 mps 748 mmHg 88%
    14:00 +19°C° 1 mm 1 mps 747 mmHg 89%
    15:00 +18°C° 0.9 mm 1 mps 747 mmHg 92%
    16:00 +18°C° 0.9 mm 1 mps 747 mmHg 94%
    17:00 +18°C° 0.9 mm 1 mps 747 mmHg 96%
    18:00 +18°C° 0.4 mm 1 mps 747 mmHg 97%
    19:00 +18°C° 0.4 mm 1 mps 748 mmHg 97%
    20:00 +18°C° 0.4 mm 1 mps 748 mmHg 97%
    21:00 +16°C° 0.4 mm 1 mps 748 mmHg 97%
    22:00 +16°C° 0.4 mm 1 mps 748 mmHg 98%
    23:00 +16°C° 0.4 mm 1 mps 748 mmHg 98%

    Day after tomorrow, 27 June, Wednesday

    Time Temperature Precipitation Wind Pressure Humidity
    00:00 +16°C° 0.4 mm 1 mps 748 mmHg 98%
    01:00 +16°C° 0.4 mm 1 mps 748 mmHg 98%
    02:00 +16°C° 0.4 mm 1 mps 748 mmHg 98%
    03:00 +16°C° 0.2 mm 1 mps 748 mmHg 98%
    04:00 +16°C° 0.2 mm 1 mps 748 mmHg 98%
    05:00 +18°C° 0.2 mm 1 mps 747 mmHg 98%
    06:00 +18°C° 0 mm 1 mps 748 mmHg 97%
    07:00 +18°C° 0 mm 1 mps 748 mmHg 96%
    08:00 +19°C° 0 mm 1 mps 749 mmHg 96%
    09:00 +19°C° 0 mm 1 mps 749 mmHg 95%
    10:00 +20°C° 0 mm 1 mps 749 mmHg 94%
    11:00 +20°C° 0 mm 1 mps 749 mmHg 93%
    12:00 +21°C° 0.1 mm 1 mps 749 mmHg 93%
    13:00 +21°C° 0.1 mm 1 mps 748 mmHg 92%
    14:00 +21°C° 0.1 mm 1 mps 748 mmHg 92%
    15:00 +21°C° 1.2 mm 1 mps 747 mmHg 93%
    16:00 +20°C° 1.2 mm 1 mps 747 mmHg 95%
    17:00 +20°C° 1.2 mm 1 mps 747 mmHg 97%
    18:00 +20°C° 1.4 mm 1 mps 747 mmHg 97%
    19:00 +20°C° 1.4 mm 1 mps 748 mmHg 97%
    20:00 +18°C° 1.4 mm 2 mps 748 mmHg 98%
    21:00 +18°C° 0.8 mm 2 mps 748 mmHg 98%
    22:00 +19°C° 0.8 mm 1 mps 748 mmHg 98%
    23:00 +19°C° 0.8 mm 1 mps 748 mmHg 98%

    28 June, Thursday

    Time Temperature Precipitation Wind Pressure Humidity
    00:00 +20°C° 0.3 mm 1 mps 748 mmHg 98%
    01:00 +20°C° 0.3 mm 1 mps 747 mmHg 98%
    02:00 +19°C° 0.3 mm 2 mps 747 mmHg 98%
    03:00 +19°C° 0.2 mm 2 mps 747 mmHg 97%
    04:00 +19°C° 0.2 mm 2 mps 747 mmHg 96%
    05:00 +19°C° 0.2 mm 2 mps 747 mmHg 95%
    06:00 +19°C° 0.2 mm 2 mps 747 mmHg 95%
    07:00 +20°C° 0.2 mm 2 mps 748 mmHg 94%
    08:00 +20°C° 0.2 mm 2 mps 748 mmHg 93%
    09:00 +21°C° 0.1 mm 2 mps 748 mmHg 88%
    10:00 +22°C° 0.1 mm 3 mps 748 mmHg 83%
    11:00 +25°C° 0.1 mm 4 mps 748 mmHg 78%
    12:00 +23°C° 0 mm 4 mps 747 mmHg 77%
    13:00 +24°C° 0 mm 3 mps 747 mmHg 76%
    14:00 +24°C° 0 mm 3 mps 746 mmHg 75%
    15:00 +24°C° 0 mm 3 mps 746 mmHg 77%
    16:00 +22°C° 0 mm 3 mps 746 mmHg 79%
    17:00 +22°C° 0 mm 3 mps 746 mmHg 81%
    18:00 +22°C° 0 mm 3 mps 746 mmHg 80%
    19:00 +22°C° 0 mm 3 mps 746 mmHg 80%
    20:00 +22°C° 0 mm 3 mps 746 mmHg 79%
    21:00 +22°C° 0 mm 3 mps 746 mmHg 79%
    22:00 +22°C° 0 mm 3 mps 746 mmHg 78%
    23:00 +24°C° 0 mm 3 mps 746 mmHg 78%

    29 June, Friday

    Time Temperature Precipitation Wind Pressure Humidity
    00:00 +22°C° 0 mm 3 mps 746 mmHg 78%
    01:00 +22°C° 0 mm 3 mps 746 mmHg 77%
    02:00 +22°C° 0 mm 3 mps 746 mmHg 77%
    03:00 +22°C° 0 mm 3 mps 745 mmHg 76%
    04:00 +22°C° 0 mm 3 mps 745 mmHg 75%
    05:00 +22°C° 0 mm 3 mps 745 mmHg 74%
    06:00 +22°C° 0 mm 3 mps 746 mmHg 74%
    07:00 +22°C° 0 mm 3 mps 746 mmHg 74%
    08:00 +22°C° 0 mm 3 mps 747 mmHg 74%
    09:00 +25°C° 0 mm 3 mps 747 mmHg 68%
    10:00 +26°C° 0 mm 3 mps 747 mmHg 63%
    11:00 +28°C° 0 mm 3 mps 747 mmHg 58%
    12:00 +28°C° 0 mm 3 mps 746 mmHg 59%
    13:00 +28°C° 0 mm 2 mps 746 mmHg 61%
    14:00 +28°C° 0 mm 2 mps 746 mmHg 62%
    15:00 +27°C° 0 mm 1 mps 746 mmHg 65%
    16:00 +26°C° 0 mm 1 mps 746 mmHg 68%
    17:00 +25°C° 0 mm 1 mps 746 mmHg 71%
    18:00 +25°C° 0 mm 1 mps 746 mmHg 71%
    19:00 +25°C° 0 mm 1 mps 746 mmHg 71%
    20:00 +24°C° 0 mm 2 mps 746 mmHg 71%
    21:00 +24°C° 0 mm 2 mps 746 mmHg 71%
    22:00 +24°C° 0 mm 2 mps 746 mmHg 72%
    23:00 +24°C° 0 mm 2 mps 746 mmHg 73%

    30 June, Saturday

    Time Temperature Precipitation Wind Pressure Humidity
    00:00 +24°C° 0 mm 2 mps 746 mmHg 72%
    01:00 +24°C° 0 mm 2 mps 746 mmHg 72%
    02:00 +24°C° 0 mm 2 mps 746 mmHg 71%
    03:00 +23°C° 0 mm 2 mps 746 mmHg 72%
    04:00 +23°C° 0 mm 2 mps 745 mmHg 73%
    05:00 +23°C° 0 mm 2 mps 745 mmHg 73%
    06:00 +23°C° 0 mm 2 mps 746 mmHg 72%
    07:00 +23°C° 0 mm 2 mps 746 mmHg 72%
    08:00 +23°C° 0 mm 2 mps 746 mmHg 71%
    09:00 +24°C° 0 mm 2 mps 746 mmHg 69%
    10:00 +24°C° 0 mm 2 mps 746 mmHg 68%
    11:00 +25°C° 0 mm 2 mps 747 mmHg 67%
    12:00 +25°C° 0 mm 2 mps 746 mmHg 64%
    13:00 +26°C° 0 mm 2 mps 745 mmHg 62%
    14:00 +27°C° 0 mm 2 mps 745 mmHg 60%
    15:00 +27°C° 0 mm 2 mps 744 mmHg 64%
    16:00 +26°C° 0 mm 2 mps 744 mmHg 67%
    17:00 +25°C° 0 mm 2 mps 744 mmHg 71%
    18:00 +25°C° 0 mm 2 mps 745 mmHg 73%
    19:00 +24°C° 0 mm 2 mps 745 mmHg 74%
    20:00 +23°C° 0 mm 2 mps 745 mmHg 76%
    21:00 +23°C° 0 mm 2 mps 745 mmHg 75%
    22:00 +22°C° 0 mm 3 mps 746 mmHg 74%
    23:00 +22°C° 0 mm 3 mps 746 mmHg 74%
    Show more